Content
SEND FEEDBACK

Spain Flag

ZARAGOZA, SPAIN


Home > Europe > Spain
Elevation: 257 meters     Latitude: 41 40N     Longitude: 001 01W

WEATHER
 
SELECT A DAY
Number of Records: 347,895;   Date Range: 7/1/96 - 3/22/16
 
SHARE

PRINT THIS DATA

[ ← Previous Day ]
WEATHER ALMANAC - APRIL 28, 2013
[ Next Day → ]
[ °C ]   °F
Weather ElementAverageHighLow
Temperature43.5 °F48.2 °F (3:30 pm)39.2 °F (7:30 am)
Dewpoint37.8 °F43 °F (8:00 pm)33.8 °F (12:30 am)
Humidity80 %93 % (11:00 am)61 % (2:00 am)
Barometer29.84 in29.89 in (10:00 pm)29.80 in (4:00 am)
Wind Speed12 mph24.2 mph (1:30 am)
Wind Gust31.1 mph (3:30 am)
Weather ElementAverage
Visibility5.5 mi
Wind DirectionWNW (295.9 °)

Weather ElementTotal
Precipitation---
Heating Degree Days21.3 (Base 65)
Averaged from 49 records on April 28, 2013
WEATHER CONDITIONS BREAKOUT
WIND DIRECTION BREAKOUT
WEATHER BY HOUR - APRIL 28, 2013
[ °C ]   °F
Local TimeTemperatureDewpointHumidityBarometerVisibilityWind DirectionWind SpeedGust SpeedPrecipitationEventsConditions
12:30 AM42.8 °F33.8 °F70 %29.83 in6.2 miNW (310°)21.9 mphPartly Cloudy
1:00 AM42.8 °F33.8 °F70 %29.86 in6.2 miWNW (300°)21.9 mphPartly Cloudy
1:30 AM42.8 °F33.8 °F70 %29.83 in6.2 miNW (310°)24.2 mphPartly Cloudy
2:00 AM45.0 °F36.0 °F61 %29.86 in12.0 miWNW (300°)18.4 mphScattered Clouds
2:00 AM42.8 °F33.8 °F70 %29.83 in6.2 miWNW (300°)19.6 mphPartly Cloudy
2:30 AM41.0 °F33.8 °F76 %29.83 in6.2 miWNW (300°)20.7 mphPartly Cloudy
3:00 AM41.0 °F33.8 °F76 %29.83 in6.2 miWNW (300°)17.3 mphPartly Cloudy
3:30 AM42.8 °F33.8 °F70 %29.83 in6.2 miWNW (300°)17.3 mph31.1 mphPartly Cloudy
4:00 AM42.8 °F33.8 °F70 %29.80 in6.2 miNW (310°)18.4 mph31.1 mphPartly Cloudy
4:30 AM42.8 °F33.8 °F70 %29.80 in6.2 miWNW (300°)19.6 mphPartly Cloudy
5:00 AM41.0 °F33.8 °F76 %29.80 in6.2 miNW (310°)18.4 mphScattered Clouds
5:30 AM41.0 °F33.8 °F76 %29.80 in6.2 miNW (310°)18.4 mphScattered Clouds
6:30 AM41.0 °F33.8 °F76 %29.83 in6.2 miNW (320°)18.4 mphScattered Clouds
7:00 AM41.0 °F33.8 °F76 %29.83 in6.2 miNW (320°)15.0 mphScattered Clouds
7:30 AM39.2 °F35.6 °F87 %29.83 in5.0 miNW (320°)13.8 mphRainLight Rain
8:00 AM41.0 °F39.0 °F89 %29.88 in5.0 miWNW (300°)13.8 mphRainLight Rain
8:00 AM39.2 °F35.6 °F87 %29.83 in5.0 miNW (310°)15.0 mphRainLight Rain
8:30 AM39.2 °F35.6 °F87 %29.86 in5.0 miWNW (300°)12.7 mphRainLight Rain
9:00 AM39.2 °F35.6 °F87 %29.86 in5.0 miWNW (300°)10.4 mphRainLight Rain
9:30 AM41.0 °F37.4 °F87 %29.86 in5.0 miNW (310°)10.4 mphRainLight Rain
10:00 AM41.0 °F37.4 °F87 %29.86 in5.0 miWNW (300°)9.2 mphRainLight Rain
10:30 AM41.0 °F37.4 °F87 %29.86 in5.0 miNW (310°)9.2 mphRainLight Rain
11:00 AM41.0 °F39.2 °F93 %29.86 in5.0 miNW (310°)10.4 mphRainLight Rain
11:30 AM42.8 °F39.2 °F87 %29.86 in5.0 miNW (310°)8.1 mphRainLight Rain
12:30 PM42.8 °F39.2 °F87 %29.86 in5.0 miWest (280°)4.6 mphRainLight Rain
1:00 PM44.6 °F39.2 °F81 %29.86 in5.0 miWest (280°)4.6 mphRainLight Rain
1:30 PM44.6 °F39.2 °F81 %29.86 in5.0 miNW (320°)5.8 mphRainRain
2:00 PM46.0 °F42.0 °F80 %29.87 in5.0 miNNW (330°)9.2 mphRainRain
2:00 PM46.4 °F41.0 °F81 %29.86 in5.0 miNNW (340°)8.1 mphRainRain
2:30 PM46.4 °F39.2 °F76 %29.86 in5.0 miNNW (340°)9.2 mphRainLight Rain
3:00 PM46.4 °F39.2 °F76 %29.83 in5.0 miNNW (340°)5.8 mphScattered Clouds
3:30 PM48.2 °F39.2 °F71 %29.83 in5.0 miVariable1.2 mphScattered Clouds
4:00 PM48.2 °F41.0 °F76 %29.83 in5.0 miVariable2.3 mphScattered Clouds
4:30 PM48.2 °F39.2 °F71 %29.83 in5.0 miNW (320°)3.5 mphRainLight Rain
5:00 PM46.4 °F41.0 °F81 %29.83 in5.0 miWNW (300°)5.8 mphRainLight Rain
5:30 PM46.4 °F41.0 °F81 %29.83 in5.0 miNW (310°)6.9 mphRainLight Rain
6:00 PM46.4 °F41.0 °F81 %29.83 in5.0 miNW (320°)5.8 mphRainLight Rain
6:30 PM46.4 °F41.0 °F81 %29.83 in5.0 miNW (310°)5.8 mphRainLight Rain
7:00 PM46.4 °F41.0 °F81 %29.83 in5.0 miWNW (300°)10.4 mphRainLight Rain
7:30 PM46.4 °F41.0 °F81 %29.83 in5.0 miNW (310°)8.1 mphRainLight Rain
8:00 PM47.0 °F43.0 °F79 %29.85 in6.0 miWNW (300°)9.2 mphRainLight Rain
8:00 PM46.4 °F41.0 °F81 %29.83 in5.6 miNW (310°)10.4 mphRainLight Rain
8:30 PM44.6 °F41.0 °F87 %29.83 in5.6 miNW (310°)11.5 mphRainLight Rain
9:00 PM44.6 °F41.0 °F87 %29.86 in5.0 miNW (310°)12.7 mphRainLight Rain
9:30 PM42.8 °F39.2 °F87 %29.86 in5.0 miNW (310°)10.4 mphRainLight Rain
10:00 PM42.8 °F39.2 °F87 %29.89 in5.0 miWNW (300°)11.5 mphRainLight Rain
10:30 PM42.8 °F39.2 °F87 %29.89 in5.0 miWNW (300°)13.8 mphRainLight Rain
11:00 PM42.8 °F39.2 °F87 %29.89 in5.6 miWNW (300°)15.0 mphMostly Cloudy
11:30 PM42.8 °F39.2 °F87 %29.89 in5.6 miWNW (300°)15.0 mphScattered Clouds
Hourly data recorded from LEZG, located miles away from Zaragoza, Spain




STORIES FROM OUR PARTNERS